Location: Saint Mary
(48.7436°N, 113.4291°W)
Time: 20:42:22
(UTC+00:00)

Altair - All Passes

Search period start: 24 May 2022 00:00
Search period end: 03 June 2022 00:00
Orbit: 1501 x 1683 km, 47.2° (Epoch: 23 May)

Date Brightness Start Highest point End Pass type
(mag) Time Alt. Az. Time Alt. Az. Time Alt. Az.
24 May - 01:59:03 10° WSW 02:09:06 75° SSE 02:19:16 10° E daylight
24 May - 04:03:45 10° W 04:13:57 81° S 04:24:05 10° ESE visible
24 May - 06:08:38 10° WNW 06:18:22 53° SSW 06:27:54 10° SE visible
24 May - 08:14:48 10° W 08:21:24 20° SW 08:27:55 10° S visible
24 May - 21:35:32 10° SE 21:37:31 11° ESE 21:39:29 10° ESE daylight
24 May - 23:31:04 10° SSW 23:39:57 39° SE 23:49:01 10° ENE daylight
25 May - 01:33:53 10° WSW 01:43:54 73° SSE 01:54:02 10° E daylight
25 May - 03:38:32 10° W 03:48:43 82° S 03:58:52 10° ESE visible
25 May - 05:43:24 10° WNW 05:53:13 55° SSW 06:02:51 10° SE visible
25 May - 07:49:18 10° W 07:56:22 22° SW 08:03:20 10° S visible
25 May - 23:06:10 10° SSW 23:14:51 36° SE 23:23:43 10° ENE daylight
26 May - 01:08:44 10° WSW 01:18:41 71° SSE 01:28:48 10° E daylight
26 May - 03:13:19 10° W 03:23:29 83° S 03:33:40 10° E daylight
26 May - 05:18:09 10° WNW 05:28:03 58° SSW 05:37:46 10° SE visible
26 May - 07:23:52 10° W 07:31:19 24° SW 07:38:40 10° S visible
26 May - 22:41:17 10° SSW 22:49:46 34° SE 22:58:25 10° ENE daylight
27 May - 00:43:36 10° WSW 00:53:29 69° SSE 01:03:34 10° E daylight
27 May - 02:48:05 10° W 02:58:15 83° S 03:08:27 10° E daylight
27 May - 04:52:56 10° WNW 05:02:52 61° SSW 05:12:41 10° SE visible
27 May - 06:58:28 10° W 07:06:15 26° SW 07:13:57 10° S visible
27 May - 22:16:26 10° SSW 22:24:40 31° SE 22:33:06 10° ENE daylight
28 May - 00:18:28 10° SW 00:28:18 67° SSE 00:38:20 10° ENE daylight
28 May - 02:22:52 10° W 02:33:01 83° S 02:43:13 10° E daylight
28 May - 04:27:42 10° WNW 04:37:41 63° SSW 04:47:34 10° SE visible
28 May - 06:33:05 10° W 06:41:11 28° SW 06:49:11 10° S visible
28 May - 21:51:38 10° S 21:59:36 29° SE 22:07:44 10° E daylight
28 May - 23:53:21 10° SW 00:03:07 64° SSE 00:13:07 10° ENE daylight
29 May - 01:57:40 10° W 02:07:47 83° S 02:18:00 10° E daylight
29 May - 04:02:29 10° WNW 04:12:29 66° SSW 04:22:27 10° SE visible
29 May - 06:07:44 10° W 06:16:07 31° SW 06:24:23 10° S visible
29 May - 21:26:52 10° S 21:34:32 27° SE 21:42:22 10° E daylight
29 May - 23:28:15 10° SW 23:37:56 62° SSE 23:47:53 10° ENE daylight
30 May - 01:32:27 10° W 01:42:33 83° S 01:52:46 10° E daylight
30 May - 03:37:15 10° W 03:47:18 68° SSW 03:57:18 10° ESE daylight
30 May - 05:42:25 10° WNW 05:51:01 33° SW 05:59:33 10° SSE visible
30 May - 21:02:09 10° S 21:09:29 25° SE 21:16:58 10° E daylight
30 May - 23:03:10 10° SW 23:12:46 59° SSE 23:22:38 10° ENE daylight
31 May - 01:07:15 10° W 01:17:18 83° S 01:27:32 10° E daylight
31 May - 03:12:02 10° W 03:22:06 70° SSW 03:32:09 10° ESE daylight
31 May - 05:17:07 10° WNW 05:25:56 35° SW 05:34:40 10° SSE visible
31 May - 20:37:29 10° S 20:44:27 23° SE 20:51:33 10° E daylight
31 May - 22:38:06 10° SW 22:47:36 56° SSE 22:57:24 10° ENE daylight
01 Jun - 00:42:03 10° W 00:52:05 82° S 01:02:18 10° E daylight
01 Jun - 02:46:49 10° W 02:56:53 72° SSW 03:06:59 10° ESE daylight
01 Jun - 04:51:50 10° WNW 05:00:49 38° SW 05:09:45 10° SSE visible
01 Jun - 07:02:20 10° WSW 07:03:16 10° WSW 07:04:12 10° SW visible
01 Jun - 20:12:52 10° S 20:19:24 21° SE 20:26:04 10° E daylight
01 Jun - 22:13:03 10° SW 22:22:27 54° SSE 22:32:08 10° ENE daylight
02 Jun - 00:16:52 10° WSW 00:26:51 82° S 00:37:04 10° E daylight
02 Jun - 02:21:37 10° W 02:31:41 74° SSW 02:41:48 10° ESE daylight
02 Jun - 04:26:33 10° WNW 04:35:42 40° SW 04:44:49 10° SSE visible
02 Jun - 06:35:06 10° WSW 06:38:16 12° WSW 06:41:24 10° SW visible
02 Jun - 19:48:21 10° SSE 19:54:23 19° SE 20:00:31 10° E daylight
02 Jun - 21:48:02 10° SW 21:57:18 51° SSE 22:06:53 10° ENE daylight
